Location: Bun Machan
(52.1403°N, 7.3744°W)
Time: 18:13:04
(UTC+00:00)

X-37B - Pass Details

Date: 27 June 2021
Orbit: 383 x 392 km, 45.0° (Epoch: 01 July)

Event Time Altitude Azimuth Distance (km) Brightness Sun altitude
Rises 23:57:40 0° 259° (W) 2,257 4.4 -14.2°
Reaches altitude 10° 00:00:10 10° 239° (WSW) 1,402 3.2 -14.2°
Enters shadow 00:00:26 11° 235° (SW) 1,330 3.0 -14.2°
